Easton, MD

12:49 PM EDT on June 29, 2017 (GMT -0400)
Easton / Newnam

Weather History for KESN - December, 2014

Change the Weather History Date:

Sunday, December 14, 2014

  Actual Average Record
Temperature  
Mean Temperature 40 °F -  
Max Temperature 50 °F 49 °F 72 °F (2015)
Min Temperature 30 °F 34 °F 11 °F (1958)
Degree Days  
Heating Degree Days 25    
Moisture  
Dew Point 36 °F    
Average Humidity 83    
Maximum Humidity 100    
Minimum Humidity 71    
Precipitation  
Precipitation 0.00 in - - ()
Sea Level Pressure  
Sea Level Pressure 30.02 in    
Wind  
Wind Speed 2 mph (NNW)    
Max Wind Speed 5 mph    
Max Gust Speed -    
Visibility 10 miles    
Events      
Averages and records for this station are not official NWS values.
T = Trace of Precipitation, MM = Missing Value Source: NWS Daily Summary

Daily Weather History Graph

Daily Weather History Graph

Search for Another Location

Airport or City:

Trip Planner

Search our weather history database for the weather conditions in past years. The results will help you decide how hot, cold, wet, or windy it might be!

Date:

Astronomy

Dec. 14, 2014 Rise Set
Actual Time 7:14 AM EST 4:43 PM EST
Civil Twilight 6:44 AM EST 5:13 PM EST
Nautical Twilight 6:11 AM EST 5:46 PM EST
Astronomical Twilight 5:39 AM EST 6:18 PM EST
Moon No Moon Rise 12:09 PM EST (12/14)
Length of Visible Light 10h 28m
Length of Day
9h 28m
Waning Gibbous, 48% of the Moon is Illuminated
Dec 14
Waning Gibbous
Dec 21
New
Dec 28
First Quarter
Jan 4
Full
Jan 13
Last Quarter

Hourly Weather History & Observations

Time (EST) Temp. Windchill Dew Point Humidity Pressure Visibility Wind Dir Wind Speed Gust Speed Precip Events Conditions
12:12 AM 36.9 °F 33.1 °F 31.8 °F 82% 30.03 in 7.0 mi WNW 4.6 mph - N/A   Clear
12:32 AM 36.7 °F 34.1 °F 31.1 °F 80% 30.03 in 10.0 mi NW 3.5 mph - N/A   Clear
12:52 AM 36.9 °F 34.3 °F 31.3 °F 80% 30.02 in 10.0 mi NW 3.5 mph - N/A   Clear
1:12 AM 36.1 °F 33.5 °F 31.1 °F 82% 30.01 in 10.0 mi NW 3.5 mph - N/A   Clear
1:32 AM 35.1 °F 32.2 °F 30.9 °F 85% 30.01 in 10.0 mi NW 3.5 mph - N/A   Clear
1:52 AM 36.0 °F - 31.8 °F 85% 30.01 in 10.0 mi Calm Calm - N/A   Clear
2:12 AM 36.9 °F - 31.8 °F 82% 30.01 in 10.0 mi Calm Calm - N/A   Clear
2:32 AM 35.4 °F - 31.5 °F 85% 30.01 in 10.0 mi Calm Calm - N/A   Clear
2:52 AM 32.2 °F - 30.0 °F 92% 30.01 in 10.0 mi Calm Calm - N/A   Clear
3:12 AM 32.0 °F - 32.0 °F 100% 30.01 in 10.0 mi Calm Calm - N/A   Clear
3:32 AM 32.0 °F - 32.0 °F 100% 30.01 in 10.0 mi Calm Calm - N/A   Clear
3:52 AM 31.1 °F - 31.1 °F 100% 30.00 in 7.0 mi Calm Calm - N/A   Clear
4:12 AM 30.9 °F - 30.9 °F 100% 30.00 in 7.0 mi Calm Calm - N/A   Mostly Cloudy
4:32 AM 32.0 °F - 32.0 °F 100% 30.00 in 10.0 mi Calm Calm - N/A   Overcast
4:52 AM 32.5 °F - 32.5 °F 100% 29.99 in 7.0 mi Calm Calm - N/A   Overcast
5:12 AM 33.8 °F - 33.8 °F 100% 29.99 in 10.0 mi Calm Calm - N/A   Overcast
5:28 AM 34.3 °F - 34.3 °F 100% 29.99 in 10.0 mi Calm Calm - N/A   Overcast
8:55 AM 41.0 °F - 37.4 °F 87% 30.03 in 10.0 mi Calm Calm - N/A   Overcast
9:55 AM 41.0 °F 39.0 °F 37.4 °F 87% 30.04 in 10.0 mi West 3.5 mph - N/A   Overcast
10:50 AM 44.6 °F 43.1 °F 37.4 °F 76% 30.03 in 10.0 mi West 3.5 mph - N/A   Overcast
11:50 AM 46.4 °F - 37.4 °F 71% 30.00 in 10.0 mi Calm Calm - N/A   Overcast
12:50 PM 46.4 °F - 37.4 °F 71% 29.98 in 10.0 mi Calm Calm - N/A   Overcast
1:50 PM 48.2 °F - 39.2 °F 71% 29.97 in 10.0 mi Calm Calm - N/A   Overcast
2:50 PM 48.2 °F - 41.0 °F 76% 29.97 in 10.0 mi Calm Calm - N/A   Overcast
3:50 PM 50.0 °F - 41.0 °F 71% 29.98 in 10.0 mi Calm Calm - N/A   Overcast
4:50 PM 48.2 °F - 41.0 °F 76% 29.99 in 10.0 mi Calm Calm - N/A   Overcast
5:50 PM 48.2 °F - 41.0 °F 76% 30.00 in 10.0 mi Calm Calm - N/A   Overcast
6:53 PM 46.4 °F - 41.0 °F 81% 30.02 in 10.0 mi Calm Calm - N/A   Overcast
7:50 PM 46.4 °F - 39.2 °F 76% 30.04 in 10.0 mi Calm Calm - N/A   Overcast
8:53 PM 46.4 °F - 39.2 °F 76% 30.05 in 10.0 mi Calm Calm - N/A   Overcast
9:33 PM 46.4 °F 45.2 °F 39.2 °F 76% 30.05 in 10.0 mi NNE 3.5 mph - N/A   Overcast
9:54 PM 46.4 °F 44.3 °F 39.2 °F 76% 30.05 in 10.0 mi NE 4.6 mph - N/A   Overcast
10:14 PM 45.5 °F 43.2 °F 39.2 °F 79% 30.05 in 10.0 mi NE 4.6 mph - N/A   Overcast
10:34 PM 45.9 °F 44.6 °F 39.0 °F 77% 30.05 in 10.0 mi NE 3.5 mph - N/A   Overcast
10:54 PM 46.4 °F - 38.7 °F 74% 30.06 in 10.0 mi Calm Calm - N/A   Overcast
11:14 PM 45.9 °F - 38.8 °F 76% 30.06 in 10.0 mi Calm Calm - N/A   Overcast
11:34 PM 45.5 °F - 38.7 °F 77% 30.06 in 10.0 mi Calm Calm - N/A   Overcast
11:54 PM 45.1 °F - 38.8 °F 79% 30.06 in 10.0 mi Calm Calm - N/A   Overcast